TimeCDT,TemperatureF,Dew PointF,Humidity,Sea Level PressureIn,VisibilityMPH,Wind Direction,Wind SpeedMPH,Gust SpeedMPH,PrecipitationIn,Events,Conditions,WindDirDegrees,DateUTC
12:53 AM,48.0,46.0,93,29.85,10.0,North,6.9,-,0.01,,Clear,350,2013-04-12 05:53:00
1:53 AM,46.9,45.0,93,29.87,10.0,North,3.5,-,N/A,,Clear,350,2013-04-12 06:53:00
2:53 AM,46.0,44.1,93,29.87,10.0,North,3.5,-,N/A,,Clear,360,2013-04-12 07:53:00
3:53 AM,43.0,42.1,97,29.88,9.0,Calm,Calm,-,N/A,,Clear,0,2013-04-12 08:53:00
4:53 AM,42.1,39.9,92,29.91,10.0,Calm,Calm,-,N/A,,Clear,0,2013-04-12 09:53:00
5:53 AM,41.0,39.9,96,29.92,10.0,Calm,Calm,-,N/A,,Clear,0,2013-04-12 10:53:00
6:53 AM,41.0,39.9,96,29.95,10.0,Calm,Calm,-,N/A,,Clear,0,2013-04-12 11:53:00
7:53 AM,46.9,46.0,97,29.96,10.0,Calm,Calm,-,N/A,,Clear,0,2013-04-12 12:53:00
8:53 AM,53.1,46.0,77,29.97,10.0,North,5.8,-,N/A,,Clear,10,2013-04-12 13:53:00
9:53 AM,59.0,44.1,58,29.99,10.0,North,5.8,-,N/A,,Clear,10,2013-04-12 14:53:00
10:53 AM,63.0,44.1,50,29.99,10.0,NNW,9.2,-,N/A,,Clear,340,2013-04-12 15:53:00
11:53 AM,66.0,41.0,40,29.99,10.0,NNW,9.2,-,N/A,,Clear,340,2013-04-12 16:53:00
12:53 PM,68.0,39.9,36,29.98,10.0,NNW,9.2,-,N/A,,Clear,340,2013-04-12 17:53:00
1:53 PM,70.0,39.0,32,29.96,10.0,Variable,5.8,-,N/A,,Clear,0,2013-04-12 18:53:00
2:53 PM,73.0,37.0,27,29.94,10.0,North,10.4,-,N/A,,Clear,360,2013-04-12 19:53:00
3:53 PM,73.0,37.9,28,29.93,10.0,NW,10.4,-,N/A,,Clear,320,2013-04-12 20:53:00
4:53 PM,73.9,37.9,27,29.92,10.0,North,5.8,-,N/A,,Clear,350,2013-04-12 21:53:00
5:53 PM,73.0,37.9,28,29.91,10.0,North,8.1,-,N/A,,Clear,350,2013-04-12 22:53:00
6:53 PM,71.1,41.0,34,29.92,10.0,North,5.8,-,N/A,,Clear,360,2013-04-12 23:53:00
7:53 PM,61.0,48.0,62,29.94,10.0,Calm,Calm,-,N/A,,Clear,0,2013-04-13 00:53:00
8:53 PM,57.9,48.0,70,29.96,10.0,Calm,Calm,-,N/A,,Clear,0,2013-04-13 01:53:00
9:53 PM,55.0,46.0,72,29.99,10.0,Calm,Calm,-,N/A,,Clear,0,2013-04-13 02:53:00
10:53 PM,55.0,45.0,69,30.01,10.0,NNE,3.5,-,N/A,,Clear,20,2013-04-13 03:53:00
11:53 PM,53.1,46.0,77,30.01,10.0,Calm,Calm,-,N/A,,Clear,0,2013-04-13 04:53:00